Location: Azul
(36.7830°S, 59.8500°W)
Time: 17:07:43
(UTC-03:00)

FO-29 - Pass Details

Date: 29 October 2021
Orbit: 799 x 1322 km, 98.5° (Epoch: 05 December)

Event Time Altitude Azimuth Distance (km) Brightness Sun altitude
Rises 23:02:26 0° 175° (S) 4,166 13.5 -34.1°
Reaches altitude 10° 23:05:10 10° 181° (S) 3,250 12.9 -34.4°
Maximum altitude 23:12:14 44° 249° (WSW) 1,760 11.0 -35.1°
Enters shadow 23:15:25 30° 296° (WNW) 2,167 11.2 -35.3°
